Wind_Speed
41 41 41 42 42 42 39 34 31 30 29 29 28 27 26 24 23 21 19 19 18 18 17 17 16 15 14 13 13 12 12 12 12 11 11 11 11 11 12 12 12 12 12 12 12 12 12 12 12
44 43 43 44 45 44 40 36 33 31 31 30 30 29 28 26 25 23 21 21 20 19 19 19 18 17 16 16 15 14 14 14 13 13 13 13 13 13 13 13 14 14 13 13 13 13 13 13 13
45 46 46 47 46 44 40 37 35 33 33 33 32 31 30 28 26 25 24 23 22 21 21 20 19 19 18 17 17 16 16 15 15 15 14 14 14 14 14 14 14 14 15 14 14 14 14 14 14
47 48 49 49 47 43 41 38 37 36 35 35 34 34 32 31 29 27 26 25 24 24 23 22 21 20 20 19 18 18 17 17 16 16 16 16 15 15 15 15 15 15 15 16 15 15 15 16 16
49 50 51 51 47 44 42 40 40 39 38 37 36 36 34 33 31 29 28 27 26 25 25 24 23 22 22 21 20 19 19 18 18 17 17 17 16 16 16 16 16 16 16 16 17 17 17 17 17
51 52 52 51 47 44 43 42 42 42 41 40 39 37 36 34 33 31 30 29 28 27 27 26 25 24 24 23 22 21 20 19 19 18 18 18 18 17 17 17 17 17 17 17 17 17 17 17 18
52 53 53 50 47 46 44 44 44 43 43 42 41 40 38 37 35 33 32 32 31 30 29 28 27 26 26 25 24 23 22 21 21 20 19 19 19 19 19 19 19 19 19 19 18 18 18 19 19
53 54 53 51 49 47 46 46 45 45 44 44 43 42 40 38 37 35 34 33 32 32 31 31 30 29 27 27 25 25 24 23 22 22 21 20 20 20 20 20 20 20 20 20 20 20 20 20 20
53 54 54 51 49 47 47 48 47 46 46 46 45 44 42 40 39 38 36 35 34 33 33 32 32 30 29 28 27 27 26 25 24 23 23 22 22 22 21 21 21 21 21 21 21 21 21 21 21
54 55 53 51 50 49 49 49 48 47 47 47 46 45 44 42 41 39 38 36 36 35 34 34 33 32 31 30 29 28 28 27 26 25 24 24 23 23 23 23 23 23 22 22 22 22 22 22 22
53 53 52 52 50 50 50 50 49 48 48 47 47 46 45 44 42 41 40 38 37 37 36 36 35 34 33 32 31 30 29 28 27 27 26 26 25 25 24 24 24 24 24 24 23 23 23 23 24
52 52 52 52 51 51 51 51 50 49 48 48 47 47 46 45 44 43 42 40 40 39 38 37 36 35 34 34 33 32 31 30 29 28 28 27 26 26 25 25 25 25 25 25 24 24 24 25 25
51 51 52 52 51 50 51 51 50 50 50 49 48 48 47 46 45 44 43 42 42 41 40 39 38 37 36 35 34 34 33 32 31 30 29 29 28 27 27 27 26 26 26 25 25 25 26 26 27
49 50 51 51 50 50 51 51 51 50 50 50 50 49 48 46 46 45 44 43 42 42 41 40 39 38 37 37 36 35 34 33 32 31 30 30 30 29 29 28 27 27 27 26 26 26 27 28 28
48 49 50 50 50 50 50 51 51 50 50 51 50 49 48 47 47 46 44 43 43 43 42 41 40 39 38 38 37 36 35 34 33 32 31 31 31 31 30 30 29 28 28 28 28 28 29 29 29
46 47 48 48 48 50 51 51 49 50 50 51 51 50 49 48 47 46 45 44 44 43 43 43 42 41 40 39 38 38 37 36 35 34 33 33 32 32 32 31 30 30 30 30 29 29 30 30 31
45 46 45 45 46 48 50 50 49 50 50 50 50 50 49 48 48 47 46 46 45 44 44 43 43 42 41 40 39 39 38 38 36 35 34 34 33 33 33 32 31 31 30 31 31 31 31 31 32
42 43 44 43 45 47 49 49 49 49 49 49 50 49 49 49 48 47 47 46 46 45 45 45 44 43 43 42 41 40 39 38 37 36 35 35 34 34 34 33 32 32 31 31 31 32 32 33 33
37 42 43 42 42 44 47 48 48 49 49 49 49 49 48 48 48 48 47 47 47 46 46 45 45 44 44 44 43 42 40 39 38 37 37 36 35 35 34 34 34 33 33 33 33 33 34 34 34
35 39 41 41 42 44 44 46 47 48 49 49 49 48 48 48 48 47 47 47 47 47 46 46 46 45 45 44 44 43 41 40 40 39 38 37 37 36 35 35 35 34 34 34 34 34 34 35 35
33 35 37 37 39 43 44 46 46 47 48 48 48 47 47 47 47 48 47 47 47 47 47 46 46 46 45 44 44 43 42 41 40 39 39 38 38 37 36 36 35 35 35 35 35 35 35 35 36
30 31 33 34 36 39 42 45 45 46 47 48 47 46 46 46 47 47 47 47 47 47 46 46 46 46 46 45 44 42 42 41 41 40 40 40 39 39 38 37 36 36 36 35 35 36 36 36 37
27 28 29 31 33 37 39 41 43 44 45 46 46 45 45 45 46 46 47 47 47 47 47 47 47 46 46 45 44 43 42 42 42 42 41 40 40 40 39 38 38 37 36 36 36 37 37 37 37
25 27 27 29 31 34 36 39 41 42 42 42 43 44 44 44 44 45 46 46 46 46 46 47 47 47 46 46 45 44 43 43 43 42 41 42 41 41 40 40 39 38 37 37 37 37 37 38 38
22 25 25 26 30 32 33 36 39 39 40 41 42 42 43 43 44 45 45 45 45 45 45 46 46 47 47 47 46 45 45 44 43 43 42 42 42 41 41 41 39 38 38 38 38 37 37 38 38
20 23 25 25 28 30 32 32 35 36 37 38 39 40 41 42 44 45 45 45 45 45 44 45 45 45 46 46 46 46 46 45 44 43 43 42 41 41 41 40 39 38 38 38 38 38 38 38 38
19 21 23 24 26 28 29 29 31 33 35 36 37 38 41 42 43 44 45 45 45 45 44 44 44 45 45 46 46 46 46 45 45 45 44 43 42 41 41 40 39 38 38 38 38 38 38 39 39
19 20 21 23 24 26 27 28 30 30 32 34 36 37 39 41 42 43 44 45 46 45 45 44 44 44 44 45 46 46 46 45 45 45 44 42 42 42 41 40 39 39 38 38 38 38 38 39 39
18 20 21 22 23 25 26 26 28 28 29 31 33 35 37 38 41 42 43 44 45 46 45 45 45 45 45 44 45 45 46 46 45 45 44 43 43 43 42 41 40 39 39 39 39 39 40 40 40
19 20 21 22 22 24 24 25 25 26 27 28 30 33 35 36 38 40 42 43 44 45 45 45 45 45 45 45 44 44 45 45 45 44 44 44 43 42 42 41 40 40 39 40 40 39 39 39 40
Wind_Direction
239 238 238 237 237 237 236 234 232 231 231 232 233 234 235 236 234 233 233 232 232 232 233 233 233 235 238 240 241 242 244 247 252 256 261 265 269 272 277 280 285 288 290 292 293 293 295 297 299
239 238 237 236 237 236 235 234 232 232 232 232 233 233 233 235 234 233 233 233 233 234 235 234 235 236 238 242 243 244 246 249 252 256 259 263 267 271 275 278 282 284 287 290 291 291 293 294 296
239 237 236 236 236 236 235 233 232 232 232 232 233 234 233 235 234 234 234 234 235 235 236 236 235 237 239 242 244 245 247 250 253 256 259 263 266 270 274 276 279 281 283 286 288 289 291 293 295
238 238 236 236 236 235 234 233 232 233 233 232 233 234 234 235 235 235 235 236 237 237 237 237 236 237 239 242 245 247 248 251 254 257 259 263 266 269 272 275 277 279 281 283 284 286 288 291 294
237 237 237 237 236 234 234 233 232 232 233 233 234 234 234 234 235 235 235 235 237 237 238 237 238 238 240 242 245 247 249 251 254 256 260 263 266 269 272 274 276 278 280 281 283 284 287 289 292
237 237 237 237 236 234 233 233 232 231 232 233 233 234 234 235 235 235 235 236 237 238 239 239 238 240 241 243 245 247 249 251 253 256 259 263 267 269 271 273 276 278 279 281 283 284 286 288 290
238 237 237 237 236 234 233 233 232 232 232 233 234 234 235 235 235 235 236 236 237 237 238 239 239 240 242 243 245 247 249 251 253 256 259 263 266 269 271 272 275 277 279 281 282 283 285 288 289
237 237 236 235 235 233 232 233 232 232 232 233 234 234 234 235 235 235 236 237 237 238 239 238 239 240 242 243 245 247 249 250 253 256 258 262 265 268 270 272 274 276 279 281 282 283 284 286 288
236 236 236 234 234 232 231 232 231 232 232 231 233 233 234 234 234 235 236 237 237 238 239 239 239 241 242 244 245 247 248 250 252 255 258 261 264 267 269 271 273 276 278 280 282 283 284 286 287
235 236 236 234 233 231 231 231 231 230 231 232 232 233 234 234 234 234 235 237 237 238 239 240 239 240 242 243 245 247 248 250 252 254 257 260 263 265 268 270 273 275 277 279 281 283 283 285 287
235 236 234 233 232 231 230 230 230 230 231 231 232 233 233 234 234 234 235 236 237 237 238 240 240 240 242 243 244 247 248 249 252 254 257 260 262 264 267 269 271 274 276 278 280 281 283 284 286
235 234 232 232 231 231 230 230 230 230 231 231 232 233 233 233 234 234 234 235 236 237 238 239 240 241 242 242 244 246 247 250 252 254 257 259 262 264 266 268 270 273 275 277 279 281 282 284 286
233 232 231 230 230 230 230 230 230 230 230 232 232 233 234 233 234 234 234 235 236 237 238 239 240 241 242 243 244 246 248 250 252 255 256 259 261 263 265 267 270 272 274 276 278 280 281 283 285
230 229 229 229 228 229 229 230 230 230 230 231 232 232 233 234 234 234 234 234 235 236 238 239 240 241 241 242 244 246 248 250 252 253 255 258 260 261 263 266 267 270 272 275 276 279 281 283 285
227 227 228 227 227 227 228 228 229 229 229 230 231 232 233 234 235 235 234 234 235 236 237 238 240 240 241 242 243 245 247 250 252 254 256 258 260 260 262 264 265 268 271 273 275 278 280 283 286
225 225 226 227 226 227 227 227 228 229 229 230 231 232 233 233 234 235 235 235 235 235 237 238 239 240 241 242 244 245 247 249 252 253 255 257 259 260 261 263 264 266 270 272 275 278 281 283 286
225 225 225 227 227 227 228 228 228 230 230 231 232 232 233 233 233 235 235 235 235 235 236 237 239 240 241 242 244 245 246 248 251 253 255 257 258 259 261 262 264 267 270 272 274 278 281 284 286
226 225 224 227 228 228 228 228 228 230 230 231 232 232 232 232 233 234 234 235 235 235 236 237 239 240 241 242 244 245 247 249 251 253 254 256 257 258 260 262 264 266 269 272 274 277 280 283 285
227 226 226 227 228 229 229 228 229 230 230 231 231 232 232 232 233 234 234 235 235 235 236 237 238 239 241 242 243 245 247 249 251 252 253 255 256 258 260 262 264 266 268 271 274 277 280 282 284
226 226 226 227 229 230 229 229 229 230 231 231 231 231 232 233 233 234 234 235 235 236 236 237 238 240 241 242 243 245 247 248 250 252 253 254 256 258 260 262 264 266 268 271 274 277 279 281 283
226 226 227 228 228 230 230 231 230 230 231 230 231 232 233 234 234 235 235 235 235 236 236 237 239 240 241 242 244 245 246 248 250 252 254 255 256 258 260 262 264 266 269 271 274 276 278 280 283
227 227 230 230 230 231 232 233 231 231 232 231 232 232 233 234 235 235 235 236 235 235 235 236 238 240 241 243 244 246 247 249 250 252 254 255 257 258 261 263 265 267 269 271 274 276 278 280 282
227 226 230 231 233 234 233 235 233 233 233 233 233 234 233 233 233 234 234 235 236 236 236 236 238 239 241 243 245 246 247 248 250 251 253 255 257 259 261 263 265 267 269 271 274 276 278 279 282
227 227 228 230 233 235 234 236 235 234 235 235 236 235 234 233 233 233 234 235 236 237 237 237 238 239 241 243 244 246 246 248 250 251 253 255 257 259 261 263 264 266 268 270 273 276 278 279 282
226 226 227 228 230 233 234 237 237 235 235 236 236 235 234 233 233 234 234 235 236 237 238 239 240 240 240 242 243 245 246 248 250 251 253 255 257 259 260 261 263 265 267 269 272 275 277 280 282
226 227 230 232 234 235 234 237 238 236 236 236 236 236 235 234 234 234 235 236 237 237 238 239 240 240 241 241 242 244 246 247 249 251 252 254 256 258 259 260 262 264 267 269 271 274 277 280 282
228 230 233 237 239 239 239 240 240 238 238 238 237 237 236 236 235 235 235 236 237 238 238 239 240 241 241 242 242 243 245 247 249 251 252 253 255 257 259 260 262 264 266 268 270 273 276 278 281
232 233 233 236 242 243 243 242 241 241 241 239 239 239 238 237 236 235 235 235 236 238 238 239 240 241 242 242 243 244 245 246 248 250 251 252 254 256 258 259 261 264 266 268 270 272 274 278 280
234 234 237 240 240 242 246 246 244 245 244 244 243 241 238 238 237 236 235 235 236 237 239 240 240 241 241 242 243 245 246 246 248 249 250 252 254 256 258 259 261 263 265 267 270 272 274 277 280
240 241 241 242 241 242 246 248 248 248 247 248 246 243 240 239 238 237 236 236 236 237 238 239 240 241 242 243 244 245 246 246 246 247 249 251 253 255 256 258 261 262 265 267 270 272 274 276 279
Height
5815 5818 5821 5823 5826 5828 5831 5837 5842 5845 5847 5849 5850 5852 5854 5856 5860 5864 5864 5864 5865 5867 5868 5869 5870 5872 5872 5873 5874 5875 5876 5877 5877 5877 5878 5878 5878 5878 5878 5878 5878 5878 5877 5877 5876 5876 5875 5874 5873
5806 5810 5813 5815 5817 5820 5826 5832 5837 5840 5842 5844 5845 5847 5849 5852 5855 5858 5859 5861 5862 5864 5865 5867 5868 5869 5870 5871 5872 5873 5874 5875 5875 5876 5876 5876 5876 5876 5876 5876 5876 5876 5875 5875 5874 5874 5873 5872 5872
5797 5800 5804 5805 5808 5814 5821 5828 5832 5834 5836 5838 5840 5842 5845 5847 5850 5853 5855 5857 5859 5861 5862 5864 5865 5866 5867 5869 5870 5871 5872 5872 5873 5873 5874 5874 5874 5874 5874 5874 5874 5874 5873 5873 5872 5872 5871 5870 5870
5788 5791 5794 5797 5801 5809 5815 5821 5824 5827 5829 5831 5834 5837 5840 5843 5846 5849 5851 5853 5855 5857 5858 5860 5862 5863 5864 5866 5867 5868 5869 5870 5870 5871 5871 5872 5872 5872 5872 5872 5871 5871 5871 5870 5870 5869 5868 5868 5867
5777 5780 5784 5787 5794 5802 5807 5812 5816 5819 5822 5825 5828 5831 5834 5838 5841 5843 5846 5848 5850 5852 5854 5856 5858 5859 5861 5862 5864 5865 5866 5867 5868 5868 5869 5869 5869 5869 5869 5869 5869 5868 5868 5867 5867 5866 5866 5865 5864
5767 5770 5774 5780 5788 5795 5800 5804 5807 5811 5814 5818 5821 5824 5828 5832 5835 5838 5841 5843 5846 5848 5850 5852 5854 5856 5857 5859 5860 5861 5863 5864 5864 5865 5865 5866 5866 5866 5866 5866 5866 5866 5865 5865 5864 5863 5863 5862 5861
5756 5760 5765 5773 5780 5786 5791 5794 5798 5803 5807 5811 5814 5818 5822 5826 5829 5832 5835 5838 5840 5843 5845 5847 5849 5851 5853 5854 5856 5858 5859 5860 5861 5862 5862 5863 5863 5863 5863 5863 5863 5862 5862 5861 5861 5860 5860 5859 5857
5745 5750 5755 5762 5770 5777 5782 5785 5789 5794 5799 5803 5806 5811 5815 5819 5823 5826 5829 5832 5835 5837 5839 5842 5844 5846 5848 5850 5852 5853 5855 5856 5857 5858 5858 5859 5859 5859 5859 5859 5859 5859 5858 5858 5857 5857 5856 5855 5854
5733 5738 5745 5754 5761 5768 5772 5776 5780 5785 5789 5793 5798 5803 5808 5812 5816 5820 5823 5826 5829 5831 5834 5836 5839 5841 5843 5845 5847 5849 5850 5851 5853 5853 5854 5855 5855 5855 5855 5855 5855 5855 5854 5854 5853 5853 5852 5851 5850
5721 5727 5737 5745 5751 5757 5761 5766 5771 5776 5780 5785 5790 5795 5799 5804 5809 5813 5816 5820 5823 5825 5828 5831 5833 5835 5838 5840 5842 5844 5845 5846 5848 5849 5850 5851 5851 5851 5851 5851 5851 5851 5850 5850 5849 5849 5848 5847 5846
5710 5718 5727 5733 5740 5745 5750 5755 5761 5766 5771 5777 5782 5787 5791 5796 5801 5805 5809 5812 5816 5819 5821 5824 5827 5830 5832 5834 5836 5838 5840 5841 5843 5844 5845 5846 5846 5847 5847 5847 5847 5846 5846 5846 5845 5844 5843 5842 5841
5699 5708 5715 5722 5728 5734 5740 5745 5751 5757 5763 5768 5773 5778 5782 5787 5792 5797 5801 5805 5808 5811 5814 5818 5821 5823 5826 5828 5830 5832 5834 5836 5837 5838 5840 5840 5841 5842 5842 5842 5842 5842 5841 5841 5840 5840 5839 5838 5836
5688 5696 5703 5710 5717 5723 5729 5735 5741 5748 5754 5759 5764 5769 5774 5779 5783 5788 5792 5796 5800 5804 5807 5810 5814 5817 5819 5822 5824 5826 5828 5830 5831 5833 5834 5835 5836 5836 5836 5837 5837 5837 5836 5836 5835 5835 5834 5833 5831
5677 5685 5692 5699 5706 5713 5720 5725 5731 5738 5744 5749 5754 5760 5765 5770 5774 5779 5784 5788 5792 5796 5800 5803 5806 5810 5812 5815 5817 5819 5821 5823 5825 5826 5828 5829 5830 5830 5831 5831 5831 5831 5831 5831 5830 5829 5828 5827 5826
5667 5674 5681 5688 5695 5702 5709 5715 5721 5728 5733 5739 5745 5750 5755 5761 5765 5770 5775 5780 5784 5788 5792 5795 5799 5802 5805 5808 5810 5812 5815 5817 5818 5820 5821 5823 5824 5824 5825 5825 5825 5825 5825 5825 5824 5823 5822 5821 5820
5657 5663 5671 5679 5685 5692 5699 5705 5712 5717 5723 5729 5735 5740 5746 5751 5756 5761 5766 5770 5775 5779 5783 5787 5791 5794 5798 5800 5802 5805 5807 5810 5811 5813 5814 5816 5817 5818 5818 5819 5819 5819 5819 5819 5818 5817 5816 5815 5813
5647 5654 5663 5671 5676 5682 5688 5696 5703 5707 5713 5719 5725 5730 5736 5742 5747 5752 5757 5761 5766 5770 5775 5779 5782 5786 5789 5792 5795 5797 5800 5802 5804 5806 5807 5809 5810 5811 5811 5812 5812 5813 5812 5812 5812 5811 5810 5808 5807
5641 5647 5654 5662 5668 5673 5679 5686 5692 5697 5704 5710 5715 5721 5726 5732 5738 5743 5747 5752 5756 5761 5765 5769 5773 5777 5780 5783 5786 5789 5792 5794 5796 5798 5800 5801 5802 5803 5804 5805 5805 5806 5806 5805 5805 5804 5803 5802 5800
5635 5640 5646 5653 5659 5664 5670 5677 5682 5687 5693 5699 5705 5711 5717 5722 5728 5733 5737 5742 5747 5752 5756 5760 5764 5768 5771 5775 5778 5781 5784 5786 5789 5790 5792 5793 5795 5796 5797 5798 5798 5798 5799 5798 5798 5797 5796 5795 5793
5626 5632 5639 5645 5650 5655 5661 5666 5672 5677 5683 5689 5695 5701 5707 5712 5718 5723 5728 5732 5737 5742 5746 5751 5755 5759 5763 5766 5769 5772 5775 5778 5780 5782 5784 5785 5787 5788 5789 5790 5790 5791 5791 5791 5791 5790 5788 5787 5785
5620 5626 5632 5637 5642 5646 5651 5656 5662 5668 5673 5679 5685 5691 5697 5703 5708 5713 5718 5722 5727 5732 5737 5741 5745 5750 5753 5757 5760 5763 5766 5769 5772 5773 5776 5777 5779 5780 5781 5782 5782 5783 5783 5783 5783 5782 5781 5779 5777
5615 5621 5625 5629 5633 5638 5643 5647 5654 5659 5664 5670 5677 5683 5688 5693 5698 5703 5708 5712 5717 5722 5727 5731 5735 5740 5744 5748 5751 5754 5758 5761 5763 5765 5767 5769 5770 5772 5773 5773 5774 5775 5775 5775 5774 5774 5772 5771 5769
5611 5615 5619 5622 5626 5630 5635 5639 5645 5650 5656 5662 5668 5674 5679 5683 5688 5693 5698 5702 5707 5712 5716 5721 5725 5730 5734 5738 5742 5745 5748 5751 5754 5756 5758 5760 5762 5763 5764 5765 5766 5766 5767 5766 5766 5765 5764 5762 5761
5606 5610 5613 5616 5619 5623 5628 5631 5637 5642 5649 5655 5659 5664 5669 5674 5678 5683 5687 5692 5697 5702 5706 5711 5715 5720 5724 5728 5732 5735 5739 5741 5744 5747 5749 5751 5753 5754 5755 5756 5757 5757 5758 5758 5757 5756 5755 5754 5752
5600 5604 5607 5609 5612 5616 5621 5623 5629 5635 5640 5645 5650 5655 5659 5664 5668 5673 5677 5682 5687 5692 5696 5701 5705 5710 5714 5718 5722 5725 5729 5732 5734 5737 5739 5741 5743 5745 5746 5747 5748 5749 5749 5749 5748 5748 5747 5745 5743
5596 5600 5603 5606 5608 5612 5615 5617 5623 5628 5632 5636 5640 5644 5649 5653 5658 5663 5668 5672 5677 5682 5686 5691 5695 5699 5703 5707 5711 5715 5718 5722 5725 5727 5730 5732 5734 5735 5737 5738 5739 5740 5740 5740 5739 5739 5738 5736 5734
5592 5595 5598 5601 5603 5605 5608 5612 5616 5620 5623 5627 5631 5635 5639 5644 5649 5653 5658 5662 5667 5672 5676 5681 5685 5689 5692 5696 5700 5704 5708 5711 5715 5717 5720 5722 5724 5726 5727 5729 5730 5730 5731 5731 5730 5730 5729 5727 5725
5589 5591 5593 5595 5596 5598 5602 5605 5609 5613 5616 5619 5623 5626 5630 5634 5639 5643 5648 5652 5657 5661 5665 5670 5674 5678 5682 5686 5690 5694 5697 5701 5704 5707 5710 5712 5714 5716 5718 5719 5720 5721 5721 5721 5721 5720 5719 5718 5716
5585 5587 5588 5590 5592 5594 5596 5602 5603 5606 5608 5611 5615 5618 5621 5625 5629 5634 5638 5642 5647 5651 5655 5659 5664 5668 5672 5675 5679 5683 5686 5690 5694 5697 5700 5702 5704 5706 5708 5710 5711 5711 5712 5712 5712 5711 5710 5709 5707
5581 5582 5583 5585 5587 5588 5590 5597 5596 5599 5601 5603 5606 5609 5612 5616 5620 5624 5628 5632 5636 5641 5645 5649 5653 5657 5661 5665 5669 5672 5676 5679 5683 5686 5689 5692 5694 5696 5698 5700 5701 5702 5702 5702 5702 5701 5700 5699 5698